Weather in Zaozersk

Russia / Murmansk Oblast     69°24′01″N   32°27′00″E
temp.,
°C
wind,
m/s
gust,
m/s
humid.,
%
clouds,
%
prec.,
mm/h
press.,
hPa
HPBL,
m
20 may, fri
fri2000:000nnw237535 0.0 1022204
03:000nw1174100 0.0 102294
06:00+1w0072100 0.0 1022172
09:00+1se1165100 0.0 1023683
12:00+2se3366100 0.0 1022797
15:00+3ese336159 0.0 1022957
18:00+3e656875 0.0 1022568
21:00+3ese777052 0.0 1021647
21 may, sat
sat2100:00+1se587666 0.0 1021334
03:000se697766 0.0 1020346
06:00+1se897343 0.0 1020411
09:00+3se897047 0.0 1019679
12:00+4se887094 0.0 1019963
15:00+5se6873100 0.0 1018866
18:00+5se6876100 0.1 1018722
21:00+5se787896 0.1 1018642
22 may, sun
sun2200:00+3se687883 0.0 1017279
03:00+2se4877100 0.0 1017317
06:00+2se5988100 0.1 1016392
09:00+3sse6985100 0.2 1016566
12:00+4sse6894100 0.4 1015570
15:00+3s5895100 1.5 1015620
18:00+3sse3797100 2.9 1015535
21:00+3sse2695100 3.3 1015499
23 may, mon
mon2300:00+4ese2491100 0.2 1015139
03:00+4se3586100 0.4 1015118
06:00+4se4680100 0.1 1015280
09:00+4ese4581100 0.1 1014510
12:00+4se4695100 0.0 1015549
15:00+5sse348695 0.1 1015452
18:00+6ese347896 0.0 1014533
21:00+5e137572 0.0 1014190
24 may, tue
tue2400:00+4se7106486 0.0 1015287
03:00+3se576896 0.0 1015268
06:00+3ese456413 0.0 1015319
09:00+6se45625 0.0 1015505
12:00+9se55605 0.0 1014752
15:00+10e546055 0.0 1014730
18:00+10e346475 0.0 1014479
21:00+10ese3667100 0.0 1014389